KLM83V EHAM-EBBR

Flight info

Callsign KLM83V
Flight time 0h 24m
Altitude 12000
Route WOODY
Aircraft E190/M-SDE3GILORVW/S

Departure

Time 2026-04-30 13:20
Airport Amsterdam Airport Schiphol (EHAM)

Arrival

Time 2026-04-30 13:44
Airport Brussels Airport (EBBR)
Time Latitude Longitude Altitude Speed Heading
2026-04-30 13:01 52.30063 4.75507 -2 ft 0 kts 238°
2026-04-30 13:04 52.30073 4.75532 25 ft 4 kts 231°
2026-04-30 13:04 52.30091 4.75559 -6 ft 4 kts 184°
2026-04-30 13:05 52.30101 4.75558 -2 ft 2 kts 151°
2026-04-30 13:08 52.30093 4.75566 -2 ft 3 kts 151°
2026-04-30 13:08 52.30066 4.75593 -2 ft 6 kts 148°
2026-04-30 13:08 52.30024 4.75635 -2 ft 8 kts 148°
2026-04-30 13:09 52.29988 4.75670 -2 ft 6 kts 156°
2026-04-30 13:09 52.29954 4.75632 -2 ft 7 kts 234°
2026-04-30 13:09 52.29919 4.75546 -2 ft 11 kts 237°
2026-04-30 13:09 52.29875 4.75434 -2 ft 12 kts 238°
2026-04-30 13:10 52.29838 4.75326 -2 ft 12 kts 250°
2026-04-30 13:10 52.29851 4.75180 -2 ft 15 kts 303°
2026-04-30 13:10 52.29923 4.75038 -2 ft 18 kts 310°
2026-04-30 13:10 52.30012 4.74874 -2 ft 21 kts 311°
2026-04-30 13:11 52.30110 4.74696 4 ft 20 kts 312°
2026-04-30 13:11 52.30197 4.74535 9 ft 20 kts 311°
2026-04-30 13:11 52.30284 4.74374 8 ft 17 kts 311°
2026-04-30 13:11 52.30375 4.74203 -2 ft 17 kts 311°
2026-04-30 13:12 52.30444 4.74078 -2 ft 15 kts 323°
2026-04-30 13:12 52.30556 4.74062 -2 ft 18 kts
2026-04-30 13:12 52.30683 4.74075 -2 ft 14 kts
2026-04-30 13:13 52.30830 4.74087 -2 ft 0 kts
2026-04-30 13:13 52.30833 4.74087 -2 ft 2 kts
2026-04-30 13:13 52.30902 4.74125 -2 ft 9 kts 52°
2026-04-30 13:14 52.30927 4.74224 -2 ft 10 kts 45°
2026-04-30 13:14 52.31004 4.74248 -2 ft 13 kts
2026-04-30 13:14 52.31219 4.74268 -2 ft 18 kts
2026-04-30 13:15 52.31352 4.74280 -2 ft 19 kts
2026-04-30 13:15 52.31650 4.74308 -2 ft 24 kts
2026-04-30 13:15 52.31822 4.74325 -2 ft 26 kts
2026-04-30 13:16 52.32007 4.74342 -2 ft 28 kts
2026-04-30 13:16 52.32198 4.74360 -2 ft 27 kts
2026-04-30 13:16 52.32395 4.74377 -2 ft 29 kts
2026-04-30 13:17 52.32646 4.74382 -2 ft 13 kts 331°
2026-04-30 13:17 52.32700 4.74271 -2 ft 14 kts 333°
2026-04-30 13:17 52.32877 4.74253 -2 ft 14 kts 333°
2026-04-30 13:18 52.32916 4.74082 -3 ft 14 kts 263°
2026-04-30 13:18 52.32872 4.73985 -4 ft 0 kts 191°
2026-04-30 13:19 52.32846 4.73979 -4 ft 15 kts 185°
2026-04-30 13:20 52.32452 4.73943 -3 ft 99 kts 183°
2026-04-30 13:20 52.31522 4.73833 153 ft 158 kts 179°
2026-04-30 13:20 52.30365 4.73699 1076 ft 172 kts 178°
2026-04-30 13:20 52.29165 4.73611 2048 ft 181 kts 175°
2026-04-30 13:21 52.27839 4.73523 2855 ft 201 kts 176°
2026-04-30 13:21 52.26338 4.73401 3519 ft 228 kts 177°
2026-04-30 13:21 52.24696 4.73239 4525 ft 241 kts 178°
2026-04-30 13:22 52.21257 4.73254 6712 ft 252 kts 162°
2026-04-30 13:22 52.19566 4.74086 7765 ft 256 kts 159°
2026-04-30 13:22 52.16093 4.75661 9787 ft 272 kts 171°
2026-04-30 13:23 52.14119 4.75829 10560 ft 289 kts 173°
2026-04-30 13:23 52.09897 4.76020 11893 ft 316 kts 174°
2026-04-30 13:24 52.05345 4.76203 12104 ft 341 kts 174°
2026-04-30 13:24 52.00538 4.76389 11991 ft 351 kts 174°
2026-04-30 13:25 51.95639 4.76584 11982 ft 351 kts 175°
2026-04-30 13:25 51.90802 4.75831 11981 ft 358 kts 198°
2026-04-30 13:26 51.84085 4.70244 11977 ft 361 kts 204°
2026-04-30 13:26 51.79595 4.66634 11988 ft 360 kts 201°
2026-04-30 13:27 51.75840 4.63765 11985 ft 359 kts 201°
2026-04-30 13:28 51.68315 4.57952 11958 ft 362 kts 202°
2026-04-30 13:28 51.64522 4.55010 11958 ft 360 kts 201°
2026-04-30 13:28 51.62269 4.53269 11950 ft 359 kts 202°
2026-04-30 13:29 51.57791 4.49828 11946 ft 359 kts 201°
2026-04-30 13:29 51.53286 4.46365 11948 ft 359 kts 202°
2026-04-30 13:30 51.46529 4.41181 11950 ft 358 kts 201°
2026-04-30 13:31 51.42022 4.37738 11940 ft 359 kts 201°
2026-04-30 13:31 51.35262 4.32604 11944 ft 358 kts 201°
2026-04-30 13:32 51.30763 4.29178 11948 ft 359 kts 202°
2026-04-30 13:32 51.26373 4.25825 11542 ft 333 kts 202°
2026-04-30 13:33 51.22228 4.23411 10824 ft 307 kts 190°
2026-04-30 13:33 51.18174 4.21692 9993 ft 295 kts 191°
2026-04-30 13:34 51.16247 4.20805 9625 ft 288 kts 192°
2026-04-30 13:34 51.10621 4.18138 8499 ft 277 kts 192°
2026-04-30 13:35 51.08781 4.17261 8134 ft 275 kts 192°
2026-04-30 13:35 51.05128 4.15516 7410 ft 273 kts 192°
2026-04-30 13:36 51.01501 4.13786 6676 ft 271 kts 192°
2026-04-30 13:36 50.99706 4.12928 6313 ft 268 kts 192°
2026-04-30 13:36 50.96169 4.11228 5610 ft 263 kts 192°
2026-04-30 13:37 50.94422 4.10409 5268 ft 261 kts 191°
2026-04-30 13:37 50.90975 4.08765 4566 ft 256 kts 192°
2026-04-30 13:38 50.87577 4.07757 3887 ft 244 kts 163°
2026-04-30 13:38 50.86017 4.08682 3599 ft 237 kts 153°
2026-04-30 13:38 50.83072 4.10902 3141 ft 227 kts 151°
2026-04-30 13:39 50.81461 4.14633 2701 ft 206 kts 92°
2026-04-30 13:39 50.82239 4.18800 2684 ft 197 kts 73°
2026-04-30 13:40 50.82749 4.20838 2703 ft 199 kts 71°
2026-04-30 13:40 50.83285 4.22850 2782 ft 199 kts 70°
2026-04-30 13:40 50.83852 4.24860 2839 ft 200 kts 69°
2026-04-30 13:40 50.84447 4.26891 2676 ft 207 kts 69°
2026-04-30 13:41 50.85071 4.28956 2361 ft 207 kts 69°
2026-04-30 13:41 50.85665 4.30963 2042 ft 195 kts 69°
2026-04-30 13:41 50.86217 4.32838 1802 ft 183 kts 69°
2026-04-30 13:41 50.86728 4.34629 1601 ft 176 kts 69°
2026-04-30 13:42 50.87221 4.36353 1377 ft 166 kts 68°
2026-04-30 13:42 50.87690 4.37970 1131 ft 154 kts 71°
2026-04-30 13:42 50.88499 4.40752 686 ft 129 kts 65°
2026-04-30 13:43 50.88871 4.42018 522 ft 122 kts 67°
2026-04-30 13:43 50.89204 4.43200 408 ft 117 kts 70°
2026-04-30 13:43 50.89559 4.44404 362 ft 124 kts 70°
2026-04-30 13:43 50.89919 4.45660 203 ft 125 kts 66°
2026-04-30 13:44 50.90268 4.46862 128 ft 109 kts 65°
2026-04-30 13:44 50.90527 4.47776 119 ft 68 kts 66°
2026-04-30 13:44 50.90656 4.48235 119 ft 23 kts 77°
2026-04-30 13:44 50.90629 4.48378 119 ft 0 kts 120°
2026-04-30 13:45 50.90623 4.48396 117 ft 3 kts 120°
2026-04-30 13:45 50.90606 4.48440 116 ft 7 kts 120°
2026-04-30 13:45 50.90581 4.48521 116 ft 10 kts 107°
2026-04-30 13:46 50.90597 4.48634 115 ft 12 kts 64°
2026-04-30 13:46 50.90636 4.48767 117 ft 14 kts 66°
2026-04-30 13:46 50.90680 4.48921 118 ft 14 kts 66°
2026-04-30 13:46 50.90711 4.49045 116 ft 10 kts 84°
2026-04-30 13:47 50.90661 4.49124 119 ft 12 kts 155°
2026-04-30 13:47 50.90582 4.49181 122 ft 11 kts 155°
2026-04-30 13:47 50.90506 4.49237 119 ft 14 kts 155°
2026-04-30 13:47 50.90436 4.49288 122 ft 8 kts 155°
2026-04-30 13:48 50.90389 4.49277 120 ft 8 kts 235°
2026-04-30 13:48 50.90361 4.49186 121 ft 11 kts 246°
2026-04-30 13:48 50.90326 4.49061 120 ft 14 kts 245°
2026-04-30 13:48 50.90285 4.48921 119 ft 14 kts 245°
2026-04-30 13:49 50.90245 4.48781 120 ft 12 kts 245°
2026-04-30 13:49 50.90223 4.48702 123 ft 5 kts 255°
2026-04-30 13:49 50.90253 4.48660 121 ft 7 kts 334°
2026-04-30 13:49 50.90286 4.48635 119 ft 4 kts 335°
2026-04-30 13:50 50.90291 4.48632 119 ft 0 kts 335°